Theta_e
325 331 334 335 329 329 332 345 342 344 344 343 340 340 339 338 340 340 327 324 326 328 330 330 327 324 323 323 323 324 324 325 326 328 329 330 330 330 330 330 330 329 327 326 325 325 325 325 326
326 331 334 333 328 333 336 336 345 343 343 342 341 341 342 344 345 337 334 327 325 325 325 325 324 323 323 323 324 325 326 329 330 332 333 333 334 334 334 334 333 333 332 330 328 327 326 325 325
327 332 332 325 325 330 335 340 343 342 342 342 340 342 342 344 344 341 341 338 324 324 324 324 323 323 324 324 325 327 329 331 332 333 333 332 331 330 330 333 335 333 332 331 331 331 330 328 327
327 332 332 327 333 330 342 343 342 342 344 346 345 344 344 343 342 339 335 334 328 324 324 324 324 324 325 326 327 328 331 332 332 331 331 334 335 334 334 337 340 340 338 338 336 337 335 332 330
326 329 323 324 332 332 339 343 343 342 342 345 343 343 344 343 342 341 343 342 336 330 325 325 325 325 326 326 328 331 332 331 333 334 335 334 335 335 335 333 334 339 338 337 336 334 335 333 329
325 324 320 323 330 330 337 344 344 339 344 343 342 343 343 342 343 341 342 343 340 339 330 326 326 326 327 329 332 332 332 335 333 332 331 330 329 331 330 328 331 333 333 335 334 333 333 335 335
323 319 323 327 331 331 335 344 340 339 341 343 341 342 344 344 344 337 338 335 335 335 333 329 329 329 330 332 332 333 334 329 321 321 320 320 323 320 320 320 322 325 330 331 331 330 331 329 332
325 322 330 330 330 334 332 341 340 341 341 341 340 342 344 344 344 340 335 336 336 335 336 333 332 332 332 332 335 336 332 328 326 324 323 321 322 322 320 318 317 320 324 327 330 329 329 329 328
325 319 323 331 331 332 336 336 339 338 339 340 339 339 342 344 345 344 339 340 340 339 337 339 336 335 335 338 339 337 334 332 327 326 326 325 325 325 324 323 322 320 318 318 322 322 323 324 324
322 318 321 325 329 329 334 337 337 339 339 342 340 338 343 341 344 341 341 341 341 341 341 337 339 338 337 337 339 336 335 333 328 327 327 327 327 326 326 324 323 323 321 319 320 317 317 317 317
319 317 318 322 331 333 335 336 338 338 338 342 342 340 342 340 341 340 344 342 340 341 342 341 341 340 338 336 336 338 332 333 328 328 327 327 327 326 326 325 325 325 324 323 322 320 319 319 318
320 320 322 327 330 329 331 335 340 336 338 342 332 331 339 338 340 341 341 343 343 343 342 342 342 343 343 342 331 333 329 328 327 327 327 327 326 325 326 326 325 325 324 323 323 322 321 321 320
319 320 321 328 332 329 332 335 339 339 338 340 337 337 340 336 340 342 340 341 343 341 341 342 342 340 342 330 329 328 327 327 326 326 326 326 325 326 326 326 325 325 325 324 323 323 322 321 321
321 320 322 322 329 328 330 330 339 340 339 339 341 341 342 339 340 338 338 340 341 340 342 342 342 338 329 328 328 328 327 326 324 323 325 324 325 326 327 325 324 325 325 324 322 322 322 322 321
320 320 317 320 326 326 330 329 329 338 340 341 343 343 343 343 342 339 334 336 340 341 340 338 336 329 328 328 327 326 321 321 320 322 325 327 328 329 328 327 324 323 323 324 324 322 322 320 321
318 316 318 320 324 326 327 326 327 333 340 342 343 343 343 342 340 336 336 338 340 341 340 336 331 330 328 326 322 321 322 324 326 327 329 330 324 315 312 312 314 317 319 321 324 324 323 322 322
316 321 321 322 320 326 322 324 324 337 342 341 342 342 342 340 339 335 333 333 333 339 337 332 324 327 326 324 324 325 328 332 331 331 327 319 314 313 310 312 313 313 314 315 316 318 319 321 321
323 323 322 321 320 318 318 319 319 336 340 337 339 341 340 340 339 335 333 333 331 333 333 329 326 325 326 328 326 329 332 332 331 325 319 314 314 311 311 314 315 315 314 314 313 313 314 315 315
321 323 324 323 321 318 320 322 322 330 335 336 338 340 341 340 339 336 333 334 331 331 332 331 331 330 330 328 329 332 331 332 323 318 315 315 313 310 314 315 315 314 312 311 312 313 314 315 314
322 322 322 321 321 320 324 323 324 331 334 335 336 338 340 340 340 337 334 334 331 332 332 332 331 331 330 328 332 331 330 322 318 316 316 314 311 312 314 315 314 312 311 311 310 312 313 316 316
323 323 324 324 321 319 322 325 321 326 333 335 336 337 337 339 339 339 335 334 332 332 332 332 331 330 330 331 332 327 322 319 317 316 315 312 312 314 315 314 312 312 311 311 310 312 313 312 313
325 323 324 324 322 322 318 326 322 321 328 332 335 335 335 335 335 335 335 333 333 331 331 331 331 332 331 331 329 322 320 318 317 315 314 313 314 315 314 312 312 311 310 310 310 311 312 312 312
325 321 322 321 319 319 318 322 321 322 329 329 332 334 334 334 335 335 335 333 333 331 330 330 331 332 332 331 322 320 318 317 315 314 313 314 314 314 312 311 310 310 309 309 309 310 312 312 312
321 321 317 316 315 319 318 321 322 322 323 323 324 330 333 334 335 335 335 334 334 333 330 330 332 332 330 322 320 318 318 315 314 314 314 314 314 313 312 310 309 308 308 308 309 309 311 312 312
319 317 318 319 320 321 317 321 320 319 320 321 324 329 331 332 333 335 334 332 331 331 331 331 333 329 322 320 319 317 315 314 313 314 314 313 312 310 309 308 308 307 307 308 308 309 310 310 310
320 319 319 325 322 320 319 324 321 320 321 322 325 329 330 328 332 332 332 331 331 331 331 330 327 322 320 319 317 315 313 312 313 314 312 309 307 307 308 308 308 308 308 308 308 307 308 309 309
324 322 318 318 318 320 319 321 320 321 321 321 326 330 328 329 328 328 329 328 331 330 329 328 322 320 318 316 315 313 311 313 313 311 309 307 307 308 309 309 309 309 309 309 309 309 308 308 309
324 318 323 319 326 327 322 322 322 322 321 319 321 325 327 328 326 327 327 327 328 327 323 321 319 318 316 315 313 312 312 311 311 309 308 307 308 309 309 309 309 309 309 308 308 307 307 308 308
324 322 318 317 319 323 323 320 317 319 319 318 322 324 325 326 326 326 327 327 325 322 321 319 317 316 315 313 312 312 311 311 310 307 307 307 308 309 310 310 310 309 308 307 308 307 307 308 307
323 321 317 321 321 319 318 320 317 317 319 320 321 323 324 323 322 323 325 325 322 320 318 317 316 316 314 313 313 312 311 311 307 306 307 308 309 310 309 310 309 308 307 307 306 307 308 307 307
Wind_Speed
21 8 8 6 5 6 3 3 1 3 1 4 12 3 3 2 1 2 11 9 11 11 14 13 11 9 8 7 8 8 9 9 9 9 9 9 9 10 10 10 9 9 9 9 9 8 7 6 5
16 5 6 4 6 4 4 3 4 3 4 12 6 9 3 2 1 9 12 10 11 11 12 12 11 9 7 7 7 7 7 8 8 7 7 8 9 8 9 9 9 9 9 8 8 7 6 5 5
15 7 2 5 4 4 4 3 3 9 16 8 5 6 3 2 6 11 10 9 12 11 11 11 10 8 7 6 6 6 6 6 5 5 5 7 7 7 8 8 9 8 8 8 8 7 7 7 5
15 4 5 5 3 3 7 6 8 11 3 4 11 5 5 7 10 11 12 11 11 11 11 10 9 8 6 5 4 4 5 4 4 4 5 6 7 7 6 7 7 7 7 7 8 8 8 8 7
8 4 4 4 3 1 2 17 22 5 3 9 7 4 4 7 12 11 10 10 9 10 11 10 9 8 6 5 4 4 3 4 4 4 4 5 6 7 8 10 8 7 8 8 9 10 10 10 10
5 4 5 2 4 3 1 24 14 5 10 6 9 6 4 10 11 11 8 8 9 8 11 11 9 8 7 5 4 4 4 4 3 3 4 6 7 8 9 11 11 11 13 13 12 11 12 12 12
4 4 4 4 2 3 6 19 12 9 8 7 19 4 7 12 12 12 11 10 11 11 10 9 9 7 7 6 7 7 5 3 5 6 5 7 7 9 11 11 12 13 14 14 16 16 14 14 14
1 4 3 4 4 5 9 21 11 15 8 15 12 6 7 18 17 14 14 13 12 12 11 10 10 9 9 8 8 7 5 4 3 5 6 6 6 11 13 14 13 14 14 14 11 12 13 13 13
3 4 1 4 5 3 17 7 14 13 8 14 16 8 23 21 20 17 18 18 16 16 14 12 12 10 9 8 6 4 4 2 1 3 6 7 8 11 13 14 15 17 17 14 14 16 16 16 16
4 4 8 7 7 7 22 10 23 7 19 9 14 13 27 22 23 24 24 22 20 19 16 15 15 14 11 9 8 7 6 4 1 4 6 7 9 13 15 16 18 19 18 15 19 18 16 18 19
4 5 5 6 19 18 22 14 21 15 6 17 26 31 30 27 26 25 24 21 18 16 16 17 16 15 14 10 8 8 7 5 3 6 7 9 12 13 15 18 20 21 18 17 18 18 18 21 22
2 12 5 4 15 18 18 19 9 26 17 24 27 32 33 32 30 27 23 21 20 17 14 16 16 16 14 11 9 9 6 5 5 6 9 13 16 17 18 20 19 19 20 19 20 21 21 23 22
4 4 3 2 16 20 21 21 12 28 12 26 32 33 34 31 28 25 21 20 20 15 14 16 16 13 12 12 10 9 6 6 9 10 13 17 19 20 22 23 20 19 20 21 22 24 23 23 22
4 7 2 6 13 13 12 7 14 23 12 32 35 36 33 30 27 22 19 20 17 15 14 14 14 11 12 12 11 8 7 12 13 15 18 20 22 24 24 22 21 22 23 24 24 24 23 24 23
3 2 8 7 6 4 18 3 10 19 22 33 34 35 34 31 29 22 16 18 18 15 13 13 13 14 12 11 10 9 10 12 15 16 15 18 22 23 25 26 26 24 25 25 25 25 24 22 23
5 6 4 4 3 6 9 8 12 20 30 30 33 35 33 32 28 21 10 10 13 15 16 15 14 14 12 11 11 11 11 13 15 15 16 21 23 27 28 28 27 25 23 24 24 24 22 23 24
8 3 4 4 6 4 2 1 6 24 30 29 32 33 33 32 27 21 8 6 6 13 16 13 11 12 13 13 11 10 11 15 14 16 21 25 27 29 28 24 24 26 27 27 28 28 27 27 27
1 3 3 3 6 7 5 4 6 15 17 9 21 30 31 31 30 25 17 9 7 11 14 13 13 14 16 14 13 13 15 18 20 21 25 27 30 33 28 24 24 26 27 26 24 27 30 31 31
6 3 2 3 4 5 4 4 7 1 7 11 22 26 28 30 29 29 21 14 15 14 15 16 17 14 15 15 14 17 20 19 21 25 26 29 32 30 26 26 28 28 27 25 24 23 22 21 20
5 2 3 4 5 6 2 7 5 5 0 7 16 23 27 28 29 30 27 21 18 15 16 17 17 16 16 17 17 21 20 19 25 27 29 30 30 28 27 30 31 27 26 25 20 19 18 15 13
1 4 1 3 4 6 4 7 7 3 4 5 13 20 22 26 27 26 28 24 20 16 17 18 16 17 18 21 21 23 20 24 26 30 30 29 28 26 28 32 29 26 27 25 19 18 17 19 20
1 2 2 3 4 2 3 2 4 5 5 3 5 12 16 19 20 22 25 24 20 18 18 18 19 21 22 25 23 21 24 26 29 31 30 28 25 27 31 29 28 27 27 25 18 17 18 18 17
2 3 3 3 4 4 8 5 5 3 3 5 7 11 13 15 17 18 20 21 20 19 21 19 24 22 24 24 20 24 24 26 30 30 31 28 27 29 29 25 25 24 27 25 19 17 18 18 17
2 4 7 4 4 4 5 3 3 4 6 3 7 11 12 12 16 18 17 18 18 20 24 22 21 24 19 19 22 23 24 27 31 31 29 29 31 30 27 28 26 27 25 23 16 18 19 15 17
7 7 4 6 6 3 5 3 7 5 4 6 10 11 13 13 15 14 14 14 14 15 18 21 20 17 18 21 22 22 26 30 29 28 29 31 31 31 32 26 22 21 21 20 18 16 18 21 23
4 5 5 1 1 5 5 0 5 2 3 6 10 11 12 13 11 11 10 11 11 11 16 20 17 16 19 20 21 26 28 26 25 26 28 30 33 27 21 21 21 21 20 19 19 20 22 24 27
2 4 4 6 2 2 3 5 6 0 2 2 9 12 13 9 10 10 10 10 12 16 18 16 16 20 20 21 24 27 24 25 25 27 29 32 18 21 25 25 24 23 23 23 22 23 23 20 18
3 5 4 3 1 3 4 4 5 5 8 7 12 17 12 12 13 12 11 13 14 16 15 17 18 18 20 23 25 23 24 24 26 28 25 23 21 23 26 24 23 22 22 22 17 18 16 14 13
2 2 6 4 4 5 1 5 7 9 10 11 17 11 11 14 13 12 13 12 15 16 16 16 17 19 21 23 22 23 24 25 28 24 22 20 23 27 26 22 20 19 21 18 16 16 11 11 11
2 3 4 5 4 1 3 7 4 7 14 17 12 11 12 9 9 10 11 12 14 15 15 16 17 18 21 22 23 25 26 27 26 21 18 21 25 26 20 18 18 18 19 15 13 10 9 12 10
Wind_Direction
2 16 119 128 57 64 355 318 286 106 158 196 149 97 137 90 152 222 141 145 148 162 162 153 152 147 137 125 107 96 87 80 71 63 56 51 46 40 36 32 30 33 30 28 30 32 34 30 18
8 29 108 108 83 65 295 264 136 237 155 139 126 105 62 53 88 145 139 143 153 162 156 150 149 143 141 126 109 97 84 71 61 51 43 36 31 27 22 17 15 13 15 15 13 12 9 13 11
11 33 24 88 103 153 188 229 164 119 125 120 120 105 89 112 127 149 150 153 151 156 153 145 145 146 137 126 112 97 81 68 56 44 35 31 26 21 20 16 16 14 11 8 4 356 347 339 337
358 22 56 74 111 218 174 166 141 152 131 155 137 86 108 139 136 136 127 135 148 157 156 150 145 143 140 127 110 88 76 64 49 39 40 37 34 35 31 17 18 24 18 6 357 343 330 321 312
6 36 54 62 329 209 151 156 159 159 132 150 151 158 116 141 137 138 134 131 150 157 158 152 152 152 149 140 122 107 88 76 65 59 44 33 29 15 9 0 354 353 339 330 325 327 331 325 313
29 48 48 57 316 339 69 164 172 154 141 166 143 117 141 153 137 127 134 138 150 159 161 161 162 162 157 152 142 130 118 101 69 15 8 19 13 21 13 357 350 338 339 336 336 335 334 335 331
83 82 162 202 146 224 186 181 179 149 158 205 147 99 150 156 156 127 131 138 146 155 161 168 162 167 168 166 161 150 132 89 70 42 24 31 25 18 16 6 352 345 341 334 329 328 335 341 341
264 89 147 236 152 246 186 178 187 160 185 171 163 174 182 156 161 146 132 130 135 140 147 159 164 166 170 165 165 162 141 118 76 39 36 30 28 12 14 7 1 347 335 329 326 326 328 332 331
159 72 244 240 164 217 165 143 172 169 165 184 196 184 159 159 166 163 168 163 159 159 154 161 163 161 168 169 178 184 181 154 88 23 19 14 5 355 352 356 353 347 342 333 327 321 319 320 321
132 129 219 210 191 184 178 145 155 160 168 239 197 170 163 172 178 185 188 181 179 177 175 179 182 175 185 193 198 204 228 238 267 345 350 344 338 336 335 336 333 334 336 330 334 325 322 327 325
170 206 205 241 209 199 167 147 167 151 210 221 182 165 172 182 189 202 202 198 194 187 190 188 190 190 192 199 214 223 242 249 294 323 318 318 317 317 319 324 327 327 329 317 321 321 311 318 320
273 245 243 280 195 172 175 163 168 172 194 213 189 179 178 189 197 206 210 209 203 198 205 199 202 210 209 224 220 219 232 249 278 283 290 294 299 301 301 306 307 306 307 304 306 309 305 308 309
214 264 164 207 192 186 171 177 169 205 234 188 186 184 189 191 201 209 220 221 211 214 212 214 217 233 228 221 214 211 228 257 283 284 294 299 301 302 303 302 294 289 289 290 292 293 291 294 295
291 292 75 118 197 166 147 142 161 222 213 180 187 190 194 196 206 208 220 229 222 217 217 220 225 228 212 206 212 224 260 281 285 294 295 298 303 304 305 306 299 290 286 283 278 272 276 286 286
288 347 22 15 147 136 138 73 223 206 194 186 191 193 197 201 211 211 234 233 233 222 226 226 213 203 202 216 235 257 271 283 292 290 289 301 307 309 311 310 306 300 292 289 283 277 274 271 276
46 53 61 315 55 159 147 246 240 199 187 192 195 197 200 204 207 213 231 238 238 226 231 219 214 220 222 233 246 262 282 300 300 296 301 309 315 318 317 311 304 299 293 287 283 279 273 274 276
13 50 19 333 21 141 87 153 291 195 187 191 196 202 202 206 206 210 225 278 263 213 219 221 216 215 227 237 250 279 297 311 305 304 316 319 324 324 321 314 308 302 296 288 283 279 278 275 276
222 67 20 52 346 45 48 51 346 196 199 191 195 205 209 210 209 212 219 276 259 226 225 232 223 230 234 245 272 297 309 316 318 319 317 321 323 325 324 317 315 313 309 301 293 284 279 278 279
96 83 90 310 0 77 38 76 342 329 151 168 205 210 216 220 213 217 223 262 273 258 239 233 231 237 249 266 294 311 315 309 314 316 318 320 322 325 320 317 316 314 309 306 298 292 295 290 283
66 41 343 298 11 88 20 39 77 41 11 209 212 217 226 234 227 224 233 254 265 262 245 238 245 249 261 283 296 307 302 306 315 317 316 318 322 321 318 317 317 316 314 312 300 289 291 291 278
74 135 226 224 19 46 41 7 359 62 90 222 228 229 236 239 242 239 234 252 261 265 247 248 252 261 273 281 290 298 299 303 309 309 311 317 318 316 315 317 317 318 319 317 298 285 281 279 277
15 262 268 267 70 184 42 230 327 345 355 331 225 227 233 237 242 243 242 248 260 267 257 255 260 266 270 278 289 289 298 304 309 310 316 318 314 314 316 317 316 321 322 317 308 288 275 279 280
199 45 32 60 93 87 352 80 269 4 334 275 253 234 233 237 239 242 245 252 258 262 262 266 262 267 273 283 282 293 299 307 307 312 314 312 309 309 314 313 311 308 314 306 296 280 270 271 268
123 83 43 51 67 41 310 108 287 182 210 243 253 236 228 224 233 240 243 252 256 256 252 270 268 268 277 277 292 300 304 306 309 310 305 304 308 309 307 307 308 315 315 300 293 279 271 264 275
52 53 3 11 13 232 334 46 233 265 257 222 227 219 205 211 227 240 245 254 260 262 261 260 268 270 276 288 296 301 303 307 310 304 305 310 311 314 315 317 321 324 319 309 293 283 277 278 275
55 115 138 216 263 274 320 321 277 262 254 254 240 221 210 224 231 239 244 250 259 262 261 266 266 277 287 294 296 299 307 313 309 305 311 313 316 321 332 326 322 315 309 307 299 291 281 280 280
149 58 160 104 14 39 286 301 327 28 255 229 219 221 225 219 222 234 242 249 249 263 265 263 270 280 287 292 300 309 315 315 310 316 316 317 324 325 322 318 311 306 306 307 297 289 291 295 282
104 147 57 18 138 282 299 277 241 246 234 244 242 230 226 215 227 234 237 242 253 259 260 267 277 287 296 304 310 316 320 316 319 319 317 328 325 317 318 314 311 309 314 315 311 305 299 295 291
21 32 51 112 122 172 238 266 219 225 217 211 224 219 213 218 229 237 236 246 251 259 269 280 288 297 305 312 319 324 324 323 321 318 321 316 315 317 317 318 320 319 322 318 308 309 302 294 292
100 95 111 107 275 126 158 271 259 256 255 222 218 210 215 218 229 232 239 250 257 274 275 284 295 308 315 320 323 327 326 323 323 318 316 313 315 320 322 323 325 330 325 323 320 312 314 304 293